Location: Augsburg
(48.3836°N, 10.8929°E)
Time: 03:59:34
(UTC+01:00)

ISS - Pass Details

Date: 12 February 2018
Orbit: 402 x 407 km, 51.6° (Epoch: 23 February)

Event Time Altitude Azimuth Distance (km) Brightness Sun altitude
Rises 18:32:28 0° 288° (WNW) 2,321 1.3 -10.4°
Reaches altitude 10° 18:34:47 10° 274° (W) 1,458 0.4 -10.8°
Maximum altitude 18:37:29 24° 218° (SW) 882 -1.5 -11.2°
Drops below altitude 10° 18:40:11 10° 162° (SSE) 1,452 -1.1 -11.6°
Sets 18:42:29 0° 148° (SSE) 2,308 -0.2 -12.0°
Enters shadow 18:42:32 - 148° (SSE) 2,331 -0.2 -12.0°
